Location: Noordwijk
(52.2400°N, 4.4500°E)
Time: 17:05:24
(UTC+00:00)

RS-15 - Visible Passes

Search period start: 30 November 2022 00:00
Search period end: 10 December 2022 00:00
Orbit: 1882 x 2163 km, 64.8° (Epoch: 29 November)

Date Brightness Start Highest point End Pass type
(mag) Time Alt. Az. Time Alt. Az. Time Alt. Az.
30 Nov 8.6 16:56:49 10° WNW 17:08:38 46° N 17:17:37 18° ENE visible
30 Nov 8.0 19:11:15 10° NW 19:23:36 68° NE 19:25:23 62° ENE visible
30 Nov 8.7 21:24:19 10° NW 21:33:09 47° WNW 21:33:09 47° WNW visible
30 Nov 9.9 23:39:37 10° WNW 23:40:55 12° WNW 23:40:55 12° WNW visible
01 Dec 8.6 16:20:08 10° WNW 16:31:57 46° N 16:43:01 12° ENE visible
01 Dec 8.2 18:34:57 10° NW 18:47:12 61° NNE 18:50:47 47° E visible
01 Dec 8.3 20:48:08 10° NW 20:58:33 62° W 20:58:33 62° W visible
01 Dec 9.7 23:02:17 10° NW 23:06:19 18° WNW 23:06:19 18° WNW visible
02 Dec 8.3 17:58:35 10° NW 18:10:43 55° NNE 18:16:13 35° E visible
02 Dec 8.0 20:11:58 10° NW 20:23:59 78° WSW 20:23:59 78° WSW visible
02 Dec 9.4 22:25:31 10° NW 22:31:45 24° W 22:31:45 24° W visible
03 Dec 8.4 17:22:09 10° WNW 17:34:08 51° NNE 17:41:42 24° E visible
03 Dec 7.9 19:35:48 10° NW 19:48:11 89° NE 19:49:29 76° SE visible
03 Dec 9.1 21:49:01 10° NW 21:57:15 33° W 21:57:15 33° W visible
04 Dec 8.5 16:45:37 10° WNW 16:57:31 48° NNE 17:07:15 16° E visible
04 Dec 8.0 18:59:37 10° NW 19:12:01 78° NE 19:15:01 58° ESE visible
04 Dec 8.7 21:12:42 10° NW 21:22:48 43° W 21:22:48 43° W visible
05 Dec 8.6 16:09:01 10° WNW 16:20:50 46° N 16:32:21 10° ENE visible
05 Dec 8.1 18:23:23 10° NW 18:35:45 69° NE 18:40:38 42° ESE visible
05 Dec 8.4 20:36:27 10° NW 20:48:03 54° WSW 20:48:26 53° WSW visible
05 Dec 9.8 22:52:01 10° WNW 22:56:13 14° W 22:56:13 14° W visible
06 Dec 8.2 17:47:06 10° NW 17:59:22 62° NNE 18:06:20 29° ESE visible
06 Dec 8.2 20:00:16 10° NW 20:12:15 65° WSW 20:14:08 59° SSW visible
06 Dec 9.6 22:14:32 10° NW 22:21:56 20° W 22:21:56 20° W visible
07 Dec 8.3 17:10:45 10° NW 17:22:53 56° NNE 17:32:07 18° E visible
07 Dec 8.1 19:24:05 10° NW 19:36:20 77° SW 19:39:56 52° SSE visible
07 Dec 9.3 21:37:42 10° NW 21:46:47 26° W 21:47:44 26° WSW visible
08 Dec 8.4 16:34:19 10° WNW 16:46:20 51° NNE 16:57:55 10° E visible
08 Dec 8.0 18:47:56 10° NW 19:00:18 89° SW 19:05:51 39° SE visible
08 Dec 9.1 21:01:11 10° NW 21:11:20 34° WSW 21:13:40 31° SW visible
09 Dec 8.5 15:57:48 10° WNW 16:09:42 48° NNE 16:21:15 10° E visible
09 Dec 8.0 18:11:45 10° NW 18:24:09 80° NE 18:31:56 27° SE visible
09 Dec 8.8 20:24:50 10° NW 20:35:47 42° WSW 20:39:46 33° SSW visible
